Weather History for Ainsworth, NE

Change the Weather History Date:

Monday, March 11, 2013

  Actual Average Record
Temperature  
Mean Temperature 28 °F -  
Max Temperature 46 °F 40 °F 66 °F (2007)
Min Temperature 9 °F 21 °F -23 °F (1998)
Degree Days  
Heating Degree Days 38    
Moisture  
Dew Point 18 °F    
Average Humidity 71    
Maximum Humidity 85    
Minimum Humidity 53    
Precipitation  
Precipitation 0.00 in - - ()
Sea Level Pressure  
Sea Level Pressure 29.91 in    
Wind  
Wind Speed 6 mph (WNW)    
Max Wind Speed 21 mph    
Max Gust Speed 25 mph    
Visibility 10 miles    
Events      
Averages and records for this station are not official NWS values.
T = Trace of Precipitation, MM = Missing Value Source: NWS Daily Summary

Daily Weather History Graph

Daily Weather History Graph

Search for Another Location

Airport:

Trip Planner

Search our weather history database for the weather conditions in past years. The results will help you decide how hot, cold, wet, or windy it might be!

Date:

Astronomy

Mar. 11, 2013 Rise Set
Actual Time 7:58 AM CDT 7:42 PM CDT
Civil Twilight 7:30 AM CDT 8:10 PM CDT
Nautical Twilight 6:57 AM CDT 8:42 PM CDT
Astronomical Twilight 6:24 AM CDT 9:15 PM CDT
Moon 7:32 AM CDT (3/11) 7:57 PM CDT (3/11)
Length of Visible Light 12h 39m
Length of Day
11h 43m
Waning Crescent, 0% of the Moon is Illuminated
Mar 11
Waning Crescent
Mar 11
New
Mar 19
First Quarter
Mar 27
Full
Apr 2
Last Quarter

Hourly Weather History & Observations

Time (CDT) Temp. Windchill Dew Point Humidity Pressure Visibility Wind Dir Wind Speed Gust Speed Precip Events Conditions
12:15 AM 11.7 °F 1.1 °F 7.5 °F 83% 30.02 in 10.0 mi WNW 6.9 mph - N/A   Clear
12:35 AM 12.6 °F 4.8 °F 9.0 °F 85% 30.01 in 10.0 mi WNW 4.6 mph - N/A   Clear
12:55 AM 10.9 °F 4.7 °F 7.2 °F 85% 30.00 in 10.0 mi West 3.5 mph - N/A   Clear
1:15 AM 9.9 °F - 6.1 °F 85% 29.99 in 10.0 mi Calm Calm - N/A   Clear
1:35 AM 11.8 °F 3.9 °F 7.9 °F 84% 29.98 in 10.0 mi WNW 4.6 mph - N/A   Clear
1:55 AM 11.7 °F 3.7 °F 7.7 °F 84% 29.97 in 10.0 mi West 4.6 mph - N/A   Clear
2:15 AM 11.5 °F 0.9 °F 7.7 °F 85% 29.97 in 10.0 mi West 6.9 mph - N/A   Clear
2:35 AM 10.8 °F 2.7 °F 6.6 °F 83% 29.97 in 10.0 mi WSW 4.6 mph - N/A   Clear
2:55 AM 11.5 °F - 7.3 °F 83% 29.96 in 10.0 mi Calm Calm - N/A   Clear
3:15 AM 11.1 °F 1.7 °F 7.2 °F 84% 29.95 in 10.0 mi West 5.8 mph - N/A   Clear
3:35 AM 10.4 °F 2.2 °F 6.6 °F 85% 29.94 in 10.0 mi West 4.6 mph - N/A   Clear
3:55 AM 10.4 °F 4.0 °F 6.6 °F 85% 29.92 in 10.0 mi West 3.5 mph - N/A   Clear
4:15 AM 9.5 °F -0.3 °F 5.5 °F 84% 29.92 in 10.0 mi West 5.8 mph - N/A   Clear
4:35 AM 10.6 °F - 6.8 °F 85% 29.92 in 10.0 mi Calm Calm - N/A   Clear
4:55 AM 11.3 °F 5.1 °F 7.5 °F 85% 29.91 in 10.0 mi West 3.5 mph - N/A   Clear
5:15 AM 10.4 °F 2.2 °F 6.1 °F 83% 29.92 in 10.0 mi WSW 4.6 mph - N/A   Clear
5:35 AM 11.1 °F 0.4 °F 7.2 °F 84% 29.92 in 10.0 mi WSW 6.9 mph - N/A   Clear
5:55 AM 12.7 °F 5.0 °F 8.6 °F 84% 29.92 in 10.0 mi WSW 4.6 mph - N/A   Clear
6:15 AM 12.7 °F 6.7 °F 8.4 °F 83% 29.92 in 10.0 mi WSW 3.5 mph - N/A   Clear
6:35 AM 12.2 °F - 7.5 °F 82% 29.92 in 10.0 mi Calm Calm - N/A   Clear
6:55 AM 12.9 °F 6.9 °F 8.2 °F 82% 29.91 in 10.0 mi SW 3.5 mph - N/A   Clear
7:15 AM 12.2 °F - 7.5 °F 82% 29.90 in 10.0 mi Calm Calm - N/A   Clear
7:35 AM 12.6 °F - 8.2 °F 83% 29.89 in 10.0 mi Calm Calm - N/A   Clear
7:55 AM 14.5 °F 7.1 °F 10.2 °F 83% 29.88 in 10.0 mi SW 4.6 mph - N/A   Clear
8:15 AM 13.8 °F 8.0 °F 9.3 °F 82% 29.88 in 10.0 mi SW 3.5 mph - N/A   Clear
8:35 AM 13.6 °F 4.6 °F 9.3 °F 83% 29.88 in 10.0 mi SW 5.8 mph - N/A   Clear
8:55 AM 16.5 °F 8.1 °F 11.3 °F 80% 29.88 in 10.0 mi WSW 5.8 mph - N/A   Clear
9:15 AM 19.6 °F 14.5 °F 13.5 °F 77% 29.87 in 10.0 mi WSW 3.5 mph - N/A   Mostly Cloudy
9:35 AM 21.0 °F 13.4 °F 13.6 °F 73% 29.87 in 10.0 mi WSW 5.8 mph - N/A   Scattered Clouds
9:55 AM 21.2 °F 14.9 °F 13.5 °F 72% 29.87 in 10.0 mi SW 4.6 mph - N/A   Clear
10:15 AM 23.7 °F 15.6 °F 14.9 °F 69% 29.87 in 10.0 mi WSW 6.9 mph - N/A   Scattered Clouds
10:35 AM 25.5 °F 18.7 °F 16.0 °F 67% 29.87 in 10.0 mi WSW 5.8 mph - N/A   Scattered Clouds
10:55 AM 27.7 °F 20.4 °F 17.2 °F 65% 29.87 in 10.0 mi WSW 6.9 mph - N/A   Clear
11:15 AM 30.2 °F 23.4 °F 18.5 °F 62% 29.86 in 10.0 mi WSW 6.9 mph - N/A   Clear
11:35 AM 32.0 °F 24.8 °F 19.9 °F 61% 29.85 in 10.0 mi WSW 8.1 mph - N/A   Clear
11:55 AM 33.4 °F 26.6 °F 22.6 °F 65% 29.85 in 10.0 mi West 8.1 mph - N/A   Scattered Clouds
12:15 PM 36.7 °F 29.4 °F 24.1 °F 60% 29.84 in 10.0 mi West 10.4 mph - N/A   Clear
12:35 PM 37.9 °F 30.0 °F 23.9 °F 57% 29.84 in 10.0 mi West 12.7 mph - N/A   Clear
12:55 PM 39.2 °F 31.6 °F 25.9 °F 59% 29.84 in 10.0 mi West 12.7 mph - N/A   Clear
1:15 PM 40.1 °F 33.6 °F 27.0 °F 59% 29.84 in 10.0 mi WNW 10.4 mph - N/A   Clear
1:35 PM 41.2 °F 35.0 °F 27.0 °F 57% 29.84 in 10.0 mi NW 10.4 mph - N/A   Clear
1:55 PM 41.7 °F 35.2 °F 27.5 °F 57% 29.84 in 10.0 mi NW 11.5 mph - N/A   Clear
2:15 PM 42.3 °F 36.8 °F 27.5 °F 56% 29.84 in 10.0 mi NW 9.2 mph - N/A   Clear
2:35 PM 43.7 °F 38.6 °F 30.6 °F 60% 29.84 in 10.0 mi WNW 9.2 mph - N/A   Clear
2:55 PM 43.9 °F 39.3 °F 30.0 °F 58% 29.82 in 10.0 mi West 8.1 mph - N/A   Clear
3:15 PM 45.1 °F 40.3 °F 29.8 °F 55% 29.82 in 10.0 mi WNW 9.2 mph - N/A   Clear
3:35 PM 45.1 °F 40.3 °F 31.1 °F 58% 29.83 in 10.0 mi WNW 9.2 mph - N/A   Clear
3:55 PM 45.7 °F 40.2 °F 30.4 °F 55% 29.83 in 10.0 mi NW 11.5 mph - N/A   Clear
4:15 PM 45.9 °F 41.2 °F 31.5 °F 57% 29.83 in 10.0 mi NW 9.2 mph - N/A   Scattered Clouds
4:35 PM 46.4 °F 41.9 °F 31.6 °F 56% 29.84 in 10.0 mi NNW 9.2 mph - N/A   Scattered Clouds
4:55 PM 45.9 °F 38.0 °F 29.5 °F 53% 29.85 in 10.0 mi NNW 20.7 mph 25.3 mph N/A   Scattered Clouds
5:15 PM 45.5 °F 37.8 °F 29.7 °F 54% 29.86 in 10.0 mi NNW 19.6 mph 24.2 mph N/A   Clear
5:35 PM 44.6 °F 36.9 °F 29.7 °F 56% 29.86 in 10.0 mi North 18.4 mph - N/A   Clear
5:55 PM 44.6 °F 37.4 °F 30.2 °F 57% 29.87 in 10.0 mi North 16.1 mph - N/A   Clear
6:15 PM 42.8 °F 34.5 °F 27.0 °F 54% 29.87 in 10.0 mi North 18.4 mph 25.3 mph N/A   Clear
6:35 PM 42.1 °F 34.5 °F 26.6 °F 54% 29.89 in 10.0 mi North 15.0 mph 23.0 mph N/A   Clear
6:55 PM 41.0 °F 32.8 °F 24.8 °F 53% 29.90 in 10.0 mi North 16.1 mph 24.2 mph N/A   Clear
7:15 PM 38.3 °F 31.4 °F 25.7 °F 61% 29.91 in 10.0 mi North 10.4 mph - N/A   Clear
7:35 PM 37.2 °F 31.9 °F 26.2 °F 65% 29.92 in 10.0 mi North 6.9 mph - N/A   Clear
7:55 PM 36.0 °F 30.3 °F 25.7 °F 66% 29.93 in 10.0 mi North 6.9 mph - N/A   Scattered Clouds
8:15 PM 35.8 °F 33.0 °F 25.0 °F 65% 29.94 in 10.0 mi NNW 3.5 mph - N/A   Clear
8:35 PM 34.0 °F 29.8 °F 24.8 °F 69% 29.94 in 10.0 mi North 4.6 mph - N/A   Clear
8:55 PM 33.6 °F 30.6 °F 23.9 °F 68% 29.96 in 10.0 mi WNW 3.5 mph - N/A   Clear
9:15 PM 32.0 °F 27.5 °F 24.8 °F 75% 29.97 in 10.0 mi West 4.6 mph - N/A   Clear
9:35 PM 31.5 °F 26.8 °F 24.1 °F 74% 29.98 in 10.0 mi West 4.6 mph - N/A   Clear
9:55 PM 30.4 °F 25.6 °F 23.4 °F 75% 29.98 in 10.0 mi WNW 4.6 mph - N/A   Clear
10:15 PM 30.2 °F 24.3 °F 22.6 °F 73% 29.99 in 10.0 mi West 5.8 mph - N/A   Clear
10:35 PM 31.3 °F 26.6 °F 22.8 °F 71% 29.99 in 10.0 mi WNW 4.6 mph - N/A   Clear
10:55 PM 30.9 °F 25.2 °F 22.1 °F 70% 30.01 in 10.0 mi WNW 5.8 mph - N/A   Clear
11:15 PM 30.2 °F 23.4 °F 22.8 °F 74% 30.03 in 10.0 mi WNW 6.9 mph - N/A   Scattered Clouds
11:35 PM 33.1 °F 24.4 °F 21.7 °F 63% 30.03 in 10.0 mi NW 11.5 mph - N/A   Mostly Cloudy
11:55 PM 33.6 °F 26.8 °F 21.0 °F 60% 30.04 in 10.0 mi NW 8.1 mph - N/A   Scattered Clouds